Time,TemperatureF,DewpointF,PressureIn,WindDirection,WindDirectionDegrees,WindSpeedMPH,WindSpeedGustMPH,Humidity,HourlyPrecipIn,Conditions,Clouds,dailyrainin,SoftwareType,DateUTC
2013-03-04 00:01:00,29.0,12.0,29.98,SW,229,3.0,12.0,49,0.00,,,0.00,,2013-03-04 05:01:00,
2013-03-04 00:11:00,29.0,12.0,29.98,SW,229,3.0,12.0,49,0.00,,,0.00,,2013-03-04 05:11:00,
2013-03-04 00:22:00,29.0,12.0,29.98,West,277,4.0,10.0,49,0.00,,,0.00,,2013-03-04 05:22:00,
2013-03-04 00:32:00,29.0,13.0,29.98,NW,323,3.0,6.0,50,0.00,,,0.00,,2013-03-04 05:32:00,
2013-03-04 00:42:00,29.0,13.0,29.98,NW,323,3.0,6.0,50,0.00,,,0.00,,2013-03-04 05:42:00,
2013-03-04 00:52:00,29.0,13.0,29.98,NNW,343,2.0,13.0,50,0.00,,,0.00,,2013-03-04 05:52:00,
2013-03-04 01:02:00,29.0,13.0,29.98,East,84,4.0,8.0,51,0.00,,,0.00,,2013-03-04 06:02:00,
2013-03-04 01:11:00,29.0,13.0,29.98,East,84,4.0,8.0,51,0.00,,,0.00,,2013-03-04 06:11:00,
2013-03-04 01:22:00,29.0,14.0,29.98,NNW,338,2.0,8.0,52,0.00,,,0.00,,2013-03-04 06:22:00,
2013-03-04 01:32:00,29.0,14.0,29.99,WSW,237,4.0,13.0,52,0.00,,,0.00,,2013-03-04 06:32:00,
2013-03-04 01:42:00,29.0,14.0,29.99,WSW,237,4.0,13.0,52,0.00,,,0.00,,2013-03-04 06:42:00,
2013-03-04 01:52:00,29.0,14.0,29.99,NNE,26,3.0,8.0,52,0.00,,,0.00,,2013-03-04 06:52:00,
2013-03-04 02:02:00,29.0,13.0,29.99,East,80,7.0,17.0,51,0.00,,,0.00,,2013-03-04 07:02:00,
2013-03-04 02:11:00,29.0,13.0,29.99,East,80,7.0,17.0,51,0.00,,,0.00,,2013-03-04 07:11:00,
2013-03-04 02:22:00,29.0,14.0,29.98,West,262,6.0,11.0,52,0.00,,,0.00,,2013-03-04 07:22:00,
2013-03-04 02:32:00,29.0,13.0,29.99,East,90,5.0,12.0,51,0.00,,,0.00,,2013-03-04 07:32:00,
2013-03-04 02:42:00,29.0,13.0,29.99,East,90,5.0,12.0,51,0.00,,,0.00,,2013-03-04 07:42:00,
2013-03-04 02:52:00,29.0,13.0,29.99,East,92,6.0,14.0,51,0.00,,,0.00,,2013-03-04 07:52:00,
2013-03-04 03:02:00,28.0,12.0,30.00,East,98,4.0,12.0,51,0.00,,,0.00,,2013-03-04 08:02:00,
2013-03-04 03:12:00,28.0,12.0,30.00,East,98,4.0,12.0,51,0.00,,,0.00,,2013-03-04 08:12:00,
2013-03-04 03:22:00,29.0,14.0,30.00,North,5,3.0,9.0,52,0.00,,,0.00,,2013-03-04 08:22:00,
2013-03-04 03:32:00,28.0,13.0,30.00,West,273,3.0,12.0,52,0.00,,,0.00,,2013-03-04 08:32:00,
2013-03-04 03:42:00,28.0,13.0,30.00,West,273,3.0,12.0,52,0.00,,,0.00,,2013-03-04 08:42:00,
2013-03-04 03:52:00,28.0,13.0,30.00,NW,310,5.0,14.0,52,0.00,,,0.00,,2013-03-04 08:52:00,
2013-03-04 04:02:00,28.0,12.0,30.00,North,9,5.0,16.0,51,0.00,,,0.00,,2013-03-04 09:02:00,
2013-03-04 04:11:00,28.0,12.0,30.00,North,9,5.0,16.0,51,0.00,,,0.00,,2013-03-04 09:11:00,
2013-03-04 04:22:00,28.0,11.0,30.01,North,9,3.0,20.0,49,0.00,,,0.00,,2013-03-04 09:22:00,
2013-03-04 04:32:00,28.0,11.0,30.01,East,90,6.0,10.0,49,0.00,,,0.00,,2013-03-04 09:32:00,
2013-03-04 04:42:00,28.0,11.0,30.01,East,90,6.0,10.0,49,0.00,,,0.00,,2013-03-04 09:42:00,
2013-03-04 04:52:00,28.0,12.0,30.01,NE,55,4.0,11.0,51,0.00,,,0.00,,2013-03-04 09:52:00,
2013-03-04 05:01:00,28.0,12.0,30.02,North,11,3.0,8.0,51,0.00,,,0.00,,2013-03-04 10:01:00,
2013-03-04 05:12:00,28.0,12.0,30.02,North,11,3.0,8.0,51,0.00,,,0.00,,2013-03-04 10:12:00,
2013-03-04 05:22:00,27.0,12.0,30.02,WNW,294,5.0,9.0,52,0.00,,,0.00,,2013-03-04 10:22:00,
2013-03-04 05:32:00,27.0,12.0,30.03,NW,326,1.0,5.0,53,0.00,,,0.00,,2013-03-04 10:32:00,
2013-03-04 05:42:00,27.0,12.0,30.03,NW,326,1.0,5.0,53,0.00,,,0.00,,2013-03-04 10:42:00,
2013-03-04 05:52:00,27.0,12.0,30.03,NE,40,4.0,11.0,53,0.00,,,0.00,,2013-03-04 10:52:00,
2013-03-04 06:02:00,27.0,12.0,30.04,WNW,288,3.0,6.0,52,0.00,,,0.00,,2013-03-04 11:02:00,
2013-03-04 06:11:00,27.0,12.0,30.04,WNW,288,3.0,6.0,52,0.00,,,0.00,,2013-03-04 11:11:00,
2013-03-04 06:22:00,27.0,12.0,30.05,North,360,4.0,8.0,53,0.00,,,0.00,,2013-03-04 11:22:00,
2013-03-04 06:32:00,27.0,12.0,30.05,West,261,3.0,11.0,53,0.00,,,0.00,,2013-03-04 11:32:00,
2013-03-04 06:42:00,27.0,12.0,30.05,West,261,3.0,11.0,53,0.00,,,0.00,,2013-03-04 11:42:00,
2013-03-04 06:52:00,27.0,12.0,30.06,WNW,290,3.0,8.0,53,0.00,,,0.00,,2013-03-04 11:52:00,
2013-03-04 07:02:00,27.0,12.0,30.06,NW,320,2.0,13.0,52,0.00,,,0.00,,2013-03-04 12:02:00,
2013-03-04 07:11:00,27.0,12.0,30.06,NW,320,2.0,13.0,52,0.00,,,0.00,,2013-03-04 12:11:00,
2013-03-04 07:22:00,27.0,12.0,30.06,West,261,2.0,6.0,53,0.00,,,0.00,,2013-03-04 12:22:00,
2013-03-04 07:32:00,27.0,12.0,30.06,WNW,294,4.0,8.0,52,0.00,,,0.00,,2013-03-04 12:32:00,
2013-03-04 07:42:00,27.0,12.0,30.06,WNW,294,4.0,8.0,52,0.00,,,0.00,,2013-03-04 12:42:00,
2013-03-04 07:53:00,27.0,12.0,30.07,West,268,4.0,8.0,53,0.00,,,0.00,,2013-03-04 12:53:00,
2013-03-04 08:02:00,29.0,12.0,30.07,NW,315,4.0,10.0,49,0.00,,,0.00,,2013-03-04 13:02:00,
2013-03-04 08:11:00,29.0,12.0,30.07,NW,315,4.0,10.0,49,0.00,,,0.00,,2013-03-04 13:11:00,
2013-03-04 08:22:00,30.0,13.0,30.08,SW,232,5.0,15.0,48,0.00,,,0.00,,2013-03-04 13:22:00,
2013-03-04 08:32:00,30.0,12.0,30.08,NNW,345,6.0,15.0,47,0.00,,,0.00,,2013-03-04 13:32:00,
2013-03-04 08:42:00,30.0,12.0,30.08,NNW,345,6.0,15.0,47,0.00,,,0.00,,2013-03-04 13:42:00,
2013-03-04 08:52:00,31.0,13.0,30.09,West,273,4.0,10.0,46,0.00,,,0.00,,2013-03-04 13:52:00,
2013-03-04 09:01:00,32.0,14.0,30.09,West,262,5.0,11.0,46,0.00,,,0.00,,2013-03-04 14:01:00,
2013-03-04 09:12:00,32.0,14.0,30.09,West,262,5.0,11.0,46,0.00,,,0.00,,2013-03-04 14:12:00,
2013-03-04 09:22:00,33.0,12.0,30.09,NNW,329,7.0,12.0,41,0.00,,,0.00,,2013-03-04 14:22:00,
2013-03-04 09:32:00,33.0,12.0,30.09,WNW,284,5.0,14.0,41,0.00,,,0.00,,2013-03-04 14:32:00,
2013-03-04 09:42:00,33.0,12.0,30.09,WNW,284,5.0,14.0,41,0.00,,,0.00,,2013-03-04 14:42:00,
2013-03-04 09:52:00,34.0,11.0,30.09,East,80,5.0,13.0,38,0.00,,,0.00,,2013-03-04 14:52:00,
2013-03-04 10:02:00,35.0,11.0,30.09,North,10,5.0,15.0,36,0.00,,,0.00,,2013-03-04 15:02:00,
2013-03-04 10:11:00,35.0,11.0,30.09,North,10,5.0,15.0,36,0.00,,,0.00,,2013-03-04 15:11:00,
2013-03-04 10:22:00,36.0,11.0,30.09,SW,222,4.0,14.0,35,0.00,,,0.00,,2013-03-04 15:22:00,
2013-03-04 10:32:00,37.0,11.0,30.09,NW,321,8.0,16.0,34,0.00,,,0.00,,2013-03-04 15:32:00,
2013-03-04 10:42:00,37.0,11.0,30.09,NW,321,8.0,16.0,34,0.00,,,0.00,,2013-03-04 15:42:00,
2013-03-04 10:52:00,38.0,12.0,30.09,WNW,285,5.0,14.0,34,0.00,,,0.00,,2013-03-04 15:52:00,
2013-03-04 11:02:00,37.0,11.0,30.09,West,259,4.0,15.0,33,0.00,,,0.00,,2013-03-04 16:02:00,
2013-03-04 11:11:00,37.0,11.0,30.09,West,259,4.0,15.0,33,0.00,,,0.00,,2013-03-04 16:11:00,
2013-03-04 11:21:00,38.0,11.0,30.08,WSW,255,3.0,13.0,33,0.00,,,0.00,,2013-03-04 16:21:00,
2013-03-04 11:32:00,40.0,10.0,30.07,WNW,297,8.0,14.0,29,0.00,,,0.00,,2013-03-04 16:32:00,
2013-03-04 11:42:00,40.0,10.0,30.07,WNW,297,8.0,14.0,29,0.00,,,0.00,,2013-03-04 16:42:00,
2013-03-04 11:52:00,41.0,11.0,30.07,NE,42,5.0,12.0,29,0.00,,,0.00,,2013-03-04 16:52:00,
2013-03-04 12:02:00,42.0,10.0,30.07,WSW,256,3.0,14.0,27,0.00,,,0.00,,2013-03-04 17:02:00,
2013-03-04 12:11:00,42.0,10.0,30.07,WSW,256,3.0,14.0,27,0.00,,,0.00,,2013-03-04 17:11:00,
2013-03-04 12:22:00,43.0,10.0,30.07,North,355,4.0,11.0,26,0.00,,,0.00,,2013-03-04 17:22:00,
2013-03-04 12:32:00,43.0,10.0,30.07,WNW,303,3.0,6.0,25,0.00,,,0.00,,2013-03-04 17:32:00,
2013-03-04 12:42:00,43.0,10.0,30.07,WNW,303,3.0,6.0,25,0.00,,,0.00,,2013-03-04 17:42:00,
2013-03-04 12:52:00,43.0,10.0,30.06,NW,310,5.0,8.0,25,0.00,,,0.00,,2013-03-04 17:52:00,
2013-03-04 13:01:00,44.0,10.0,30.06,WSW,251,4.0,8.0,24,0.00,,,0.00,,2013-03-04 18:01:00,
2013-03-04 13:11:00,44.0,10.0,30.06,WSW,251,4.0,8.0,24,0.00,,,0.00,,2013-03-04 18:11:00,
2013-03-04 13:22:00,45.0,10.0,30.05,West,263,5.0,8.0,24,0.00,,,0.00,,2013-03-04 18:22:00,
2013-03-04 13:32:00,45.0,11.0,30.05,WSW,258,3.0,12.0,25,0.00,,,0.00,,2013-03-04 18:32:00,
2013-03-04 13:42:00,45.0,11.0,30.05,WSW,258,3.0,12.0,25,0.00,,,0.00,,2013-03-04 18:42:00,
2013-03-04 13:52:00,46.0,10.0,30.04,WNW,296,1.0,11.0,23,0.00,,,0.00,,2013-03-04 18:52:00,
2013-03-04 14:02:00,46.0,11.0,30.03,SW,224,3.0,8.0,24,0.00,,,0.00,,2013-03-04 19:02:00,
2013-03-04 14:12:00,46.0,11.0,30.03,SW,224,3.0,8.0,24,0.00,,,0.00,,2013-03-04 19:12:00,
2013-03-04 14:22:00,46.0,9.0,30.03,West,259,10.0,14.0,22,0.00,,,0.00,,2013-03-04 19:22:00,
2013-03-04 14:32:00,47.0,10.0,30.01,WSW,244,3.0,12.0,22,0.00,,,0.00,,2013-03-04 19:32:00,
2013-03-04 14:42:00,47.0,10.0,30.01,WSW,244,3.0,12.0,22,0.00,,,0.00,,2013-03-04 19:42:00,
2013-03-04 14:52:00,47.0,10.0,30.01,NE,45,3.0,13.0,22,0.00,,,0.00,,2013-03-04 19:52:00,
2013-03-04 15:02:00,48.0,9.0,30.01,WNW,286,9.0,13.0,20,0.00,,,0.00,,2013-03-04 20:02:00,
2013-03-04 15:11:00,48.0,9.0,30.01,WNW,286,9.0,13.0,20,0.00,,,0.00,,2013-03-04 20:11:00,
2013-03-04 15:22:00,49.0,11.0,30.01,WNW,292,2.0,9.0,21,0.00,,,0.00,,2013-03-04 20:22:00,
2013-03-04 15:32:00,49.0,9.0,30.01,NW,326,3.0,11.0,19,0.00,,,0.00,,2013-03-04 20:32:00,
2013-03-04 15:42:00,49.0,9.0,30.01,NW,326,3.0,11.0,19,0.00,,,0.00,,2013-03-04 20:42:00,
2013-03-04 15:53:00,49.0,9.0,30.00,WSW,244,4.0,12.0,19,0.00,,,0.00,,2013-03-04 20:53:00,
2013-03-04 16:02:00,49.0,7.0,30.00,NE,46,4.0,10.0,18,0.00,,,0.00,,2013-03-04 21:02:00,
2013-03-04 16:12:00,49.0,7.0,30.00,NE,46,4.0,10.0,18,0.00,,,0.00,,2013-03-04 21:12:00,
2013-03-04 16:22:00,49.0,7.0,30.00,WNW,295,4.0,9.0,18,0.00,,,0.00,,2013-03-04 21:22:00,
2013-03-04 16:32:00,49.0,7.0,29.99,WNW,294,4.0,11.0,18,0.00,,,0.00,,2013-03-04 21:32:00,
2013-03-04 16:42:00,49.0,7.0,29.99,WNW,294,4.0,11.0,18,0.00,,,0.00,,2013-03-04 21:42:00,
2013-03-04 16:53:00,49.0,7.0,29.99,WNW,294,5.0,13.0,18,0.00,,,0.00,,2013-03-04 21:53:00,
2013-03-04 17:02:00,49.0,6.0,29.99,North,5,7.0,10.0,17,0.00,,,0.00,,2013-03-04 22:02:00,
2013-03-04 17:12:00,49.0,6.0,29.99,North,5,7.0,10.0,17,0.00,,,0.00,,2013-03-04 22:12:00,
2013-03-04 17:22:00,49.0,7.0,30.00,ESE,104,3.0,13.0,18,0.00,,,0.00,,2013-03-04 22:22:00,
2013-03-04 17:32:00,49.0,6.0,30.01,WNW,292,7.0,12.0,17,0.00,,,0.00,,2013-03-04 22:32:00,
2013-03-04 17:42:00,49.0,6.0,30.01,WNW,292,7.0,12.0,17,0.00,,,0.00,,2013-03-04 22:42:00,
2013-03-04 17:52:00,48.0,7.0,30.01,NNE,20,3.0,12.0,18,0.00,,,0.00,,2013-03-04 22:52:00,
2013-03-04 18:02:00,48.0,9.0,30.01,ENE,63,2.0,7.0,20,0.00,,,0.00,,2013-03-04 23:02:00,
2013-03-04 18:11:00,48.0,9.0,30.01,ENE,63,2.0,7.0,20,0.00,,,0.00,,2013-03-04 23:11:00,
2013-03-04 18:22:00,47.0,10.0,30.02,West,269,3.0,11.0,22,0.00,,,0.00,,2013-03-04 23:22:00,
2013-03-04 18:32:00,46.0,11.0,30.02,WSW,258,3.0,9.0,24,0.00,,,0.00,,2013-03-04 23:32:00,
2013-03-04 18:42:00,46.0,11.0,30.02,WSW,258,3.0,9.0,24,0.00,,,0.00,,2013-03-04 23:42:00,
2013-03-04 18:52:00,45.0,10.0,30.02,NW,306,3.0,7.0,24,0.00,,,0.00,,2013-03-04 23:52:00,
2013-03-04 19:02:00,45.0,11.0,30.03,NW,311,1.0,4.0,25,0.00,,,0.00,,2013-03-05 00:02:00,
2013-03-04 19:12:00,45.0,11.0,30.03,NW,311,1.0,4.0,25,0.00,,,0.00,,2013-03-05 00:12:00,
2013-03-04 19:22:00,44.0,10.0,30.03,WNW,302,0.0,4.0,25,0.00,,,0.00,,2013-03-05 00:22:00,
2013-03-04 19:32:00,43.0,10.0,30.04,West,269,1.0,5.0,26,0.00,,,0.00,,2013-03-05 00:32:00,
2013-03-04 19:42:00,43.0,10.0,30.04,West,269,1.0,5.0,26,0.00,,,0.00,,2013-03-05 00:42:00,
2013-03-04 19:52:00,43.0,12.0,30.05,West,268,0.0,3.0,28,0.00,,,0.00,,2013-03-05 00:52:00,
2013-03-04 20:02:00,43.0,12.0,30.05,SW,232,1.0,4.0,28,0.00,,,0.00,,2013-03-05 01:02:00,
2013-03-04 20:12:00,43.0,12.0,30.05,SW,232,1.0,4.0,28,0.00,,,0.00,,2013-03-05 01:12:00,
2013-03-04 20:22:00,43.0,12.0,30.05,WSW,245,2.0,4.0,28,0.00,,,0.00,,2013-03-05 01:22:00,
2013-03-04 20:32:00,42.0,12.0,30.05,WSW,248,2.0,4.0,29,0.00,,,0.00,,2013-03-05 01:32:00,
2013-03-04 20:42:00,42.0,12.0,30.05,WSW,248,2.0,4.0,29,0.00,,,0.00,,2013-03-05 01:42:00,
2013-03-04 20:52:00,42.0,12.0,30.05,WSW,250,0.0,3.0,29,0.00,,,0.00,,2013-03-05 01:52:00,
2013-03-04 21:01:00,41.0,13.0,30.05,WSW,254,1.0,2.0,32,0.00,,,0.00,,2013-03-05 02:01:00,
2013-03-04 21:11:00,41.0,13.0,30.05,WSW,254,1.0,2.0,32,0.00,,,0.00,,2013-03-05 02:11:00,
2013-03-04 21:22:00,40.0,13.0,30.05,WSW,257,1.0,2.0,33,0.00,,,0.00,,2013-03-05 02:22:00,
2013-03-04 21:32:00,40.0,13.0,30.04,WSW,254,1.0,3.0,32,0.00,,,0.00,,2013-03-05 02:32:00,
2013-03-04 21:42:00,40.0,13.0,30.04,WSW,254,1.0,3.0,32,0.00,,,0.00,,2013-03-05 02:42:00,
2013-03-04 21:53:00,40.0,13.0,30.05,ESE,119,0.0,2.0,32,0.00,,,0.00,,2013-03-05 02:53:00,
2013-03-04 22:02:00,39.0,16.0,30.06,ESE,119,0.0,1.0,38,0.00,,,0.00,,2013-03-05 03:02:00,
2013-03-04 22:12:00,39.0,16.0,30.06,ESE,119,0.0,1.0,38,0.00,,,0.00,,2013-03-05 03:12:00,
2013-03-04 22:22:00,37.0,14.0,30.06,ESE,119,0.0,2.0,39,0.00,,,0.00,,2013-03-05 03:22:00,
2013-03-04 22:32:00,37.0,16.0,30.06,ESE,119,2.0,4.0,41,0.00,,,0.00,,2013-03-05 03:32:00,
2013-03-04 22:42:00,37.0,16.0,30.06,ESE,119,2.0,4.0,41,0.00,,,0.00,,2013-03-05 03:42:00,
2013-03-04 22:52:00,37.0,16.0,30.05,ESE,119,0.0,1.0,42,0.00,,,0.00,,2013-03-05 03:52:00,
2013-03-04 23:02:00,37.0,16.0,30.05,ESE,119,2.0,4.0,41,0.00,,,0.00,,2013-03-05 04:02:00,
2013-03-04 23:12:00,37.0,16.0,30.05,ESE,119,2.0,4.0,41,0.00,,,0.00,,2013-03-05 04:12:00,
2013-03-04 23:22:00,37.0,16.0,30.05,ESE,119,0.0,1.0,42,0.00,,,0.00,,2013-03-05 04:22:00,
2013-03-04 23:32:00,36.0,17.0,30.05,ESE,119,0.0,1.0,46,0.00,,,0.00,,2013-03-05 04:32:00,
2013-03-04 23:42:00,36.0,17.0,30.05,ESE,119,0.0,1.0,46,0.00,,,0.00,,2013-03-05 04:42:00,
2013-03-04 23:52:00,37.0,19.0,30.04,ESE,119,0.0,2.0,47,0.00,,,0.00,,2013-03-05 04:52:00,